DW2770 Weather Reports


Display with metric or nautical units.
time (UTC)temp
F
wind
direction
speed
MPH
gust
MPH
rain 1hr
in
rain 24hr
in
rain mn
in
humidity
%
barometer
mb
20260904091523 83 302 2.0 9.0 0.00 0.00 0.00 71 1018.1
20260904090024 83 309 3.0 6.0 0.00 0.00 0.00 70 1017.9
20260904084531 84 306 3.0 8.0 0.00 0.00 0.00 70 1018.0
20260904083012 83 117 1.0 5.0 0.00 0.00 0.00 69 1018.0
20260904081516 83 316 0.0 8.0 0.00 0.00 0.00 69 1017.8
20260904080023 83 344 1.0 5.0 0.00 0.00 0.00 68 1017.8
20260904074527 83 350 1.0 3.0 0.00 0.00 0.00 68 1017.7
20260904073032 82 60 1.0 4.0 0.00 0.00 0.00 69 1017.7
20260904071513 82 316 1.0 4.0 0.00 0.00 0.00 69 1017.6
20260904070037 82 324 2.0 5.0 0.00 0.00 0.00 69 1017.5
20260904064526 81 263 2.0 5.0 0.00 0.00 0.00 70 1017.4
20260904063036 81 360 3.0 5.0 0.00 0.00 0.00 70 1017.4
20260904061512 81 222 1.0 3.0 0.00 0.00 0.00 71 1017.6
20260904060021 80 360 2.0 5.0 0.00 0.00 0.00 72 1017.3
20260904054504 79 219 4.0 6.0 0.00 0.00 0.00 73 1017.2
20260904053005 78 217 2.0 5.0 0.00 0.00 0.00 74 1017.1
20260904051509 77 183 3.0 5.0 0.00 0.00 0.00 75 1017.1
20260904050019 77 360 3.0 4.0 0.00 0.00 0.00 76 1017.1
20260904044532 77 360 3.0 5.0 0.00 0.00 0.00 76 1016.8
20260904043011 77 360 3.0 5.0 0.00 0.00 0.00 76 1016.8
20260904041508 78 360 2.0 6.0 0.00 0.00 0.00 75 1016.7
20260904040012 78 227 3.0 6.0 0.00 0.00 0.00 76 1016.5
20260904034542 78 360 2.0 6.0 0.00 0.00 0.00 75 1016.6
20260904033004 78 202 4.0 6.0 0.00 0.00 0.00 74 1016.6
20260904031511 79 188 3.0 6.0 0.00 0.00 0.00 73 1016.6
20260904030012 79 360 3.0 8.0 0.00 0.00 0.00 73 1016.6
20260904024518 79 360 4.0 10.0 0.00 0.00 0.00 73 1016.6
20260904023025 78 360 5.0 9.0 0.00 0.00 0.00 73 1016.6
20260904021504 78 360 5.0 8.0 0.00 0.00 0.00 75 1016.6
20260904020012 77 198 2.0 5.0 0.00 0.00 0.00 76 1016.7
20260904014516 76 192 1.0 4.0 0.00 0.00 0.00 76 1016.8
20260904013023 77 186 1.0 5.0 0.00 0.00 0.00 76 1016.7
20260904011554 77 178 1.0 5.0 0.00 0.00 0.00 76 1016.7
20260904010009 76 169 1.0 5.0 0.00 0.00 0.00 77 1016.7
20260904004512 76 171 2.0 6.0 0.00 0.00 0.00 77 1016.7
20260904003018 77 198 2.0 8.0 0.00 0.00 0.00 77 1016.9
20260904001525 76 360 4.0 8.0 0.00 0.00 0.00 77 1017.0
20260904000040 77 189 1.0 5.0 0.00 0.00 0.00 77 1017.1
20260903234514 77 179 3.0 8.0 0.00 0.00 0.00 76 1017.1
20260903233009 77 206 4.0 9.0 0.00 0.00 0.00 77 1017.1
20260903231504 77 184 3.0 7.0 0.00 0.00 0.00 76 1017.2
20260903230005 78 360 3.0 6.0 0.00 0.00 0.00 76 1017.3
20260903224508 78 360 3.0 6.0 0.00 0.00 0.00 75 1017.2
20260903223017 78 196 2.0 5.0 0.00 0.00 0.00 75 1017.2
20260903221504 78 184 2.0 5.0 0.00 0.00 0.00 75 1017.2
20260903220008 78 360 2.0 7.0 0.00 0.00 0.00 75 1017.2
20260903214507 78 173 2.0 7.0 0.00 0.00 0.00 75 1017.2
20260903213010 79 195 2.0 6.0 0.00 0.00 0.00 75 1017.2
20260903211520 79 203 3.0 7.0 0.00 0.00 0.00 75 1017.2
20260903210005 79 205 4.0 6.0 0.00 0.00 0.00 75 1017.2
20260903204504 79 210 4.0 7.0 0.00 0.00 0.00 75 1017.3
20260903203023 80 203 3.0 6.0 0.00 0.00 0.00 74 1017.3
20260903201522 81 161 0.0 0.0 0.00 0.00 0.00 73 1017.3
20260903200022 81 130 0.0 1.0 0.00 0.00 0.00 73 1017.4
20260903194504 81 85 0.0 6.0 0.00 0.00 0.00 73 1017.4
20260903193017 81 69 2.0 5.0 0.00 0.00 0.00 73 1017.3
20260903191513 82 100 0.0 3.0 0.00 0.00 0.00 72 1017.2
20260903190018 82 115 0.0 3.0 0.00 0.00 0.00 73 1017.1
20260903184523 82 138 0.0 3.0 0.00 0.00 0.00 73 1016.6
20260903183007 82 300 0.0 0.0 0.00 0.00 0.00 73 1016.4
20260903181513 82 138 0.0 2.0 0.00 0.00 0.00 73 1016.2
20260903180021 82 324 1.0 3.0 0.00 0.00 0.00 73 1016.0
20260903174525 82 97 0.0 2.0 0.00 0.00 0.00 72 1015.9
20260903173027 83 88 1.0 3.0 0.00 0.00 0.00 71 1015.5
20260903171507 83 53 0.0 2.0 0.00 0.00 0.00 71 1015.5
20260903170013 83 88 0.0 3.0 0.00 0.00 0.00 71 1015.6
20260903164515 83 70 1.0 3.0 0.00 0.00 0.00 70 1015.7
20260903163023 83 94 0.0 4.0 0.00 0.00 0.00 69 1015.7
20260903161530 83 79 3.0 6.0 0.00 0.00 0.00 69 1015.8
20260903160008 84 73 3.0 8.0 0.00 0.00 0.00 67 1015.7
20260903154514 83 84 2.0 9.0 0.00 0.00 0.00 70 1015.8
20260903153018 83 84 2.0 8.0 0.00 0.00 0.00 71 1015.7
20260903151526 85 84 2.0 7.0 0.00 0.00 0.00 69 1015.7
20260903150032 84 83 1.0 8.0 0.00 0.00 0.00 70 1015.7
20260903144534 85 82 2.0 8.0 0.00 0.00 0.00 69 1015.8
20260903143022 85 11 3.0 8.0 0.00 0.00 0.00 69 1015.9
20260903141524 85 68 4.0 9.0 0.00 0.00 0.00 69 1016.1
20260903140037 85 67 4.0 7.0 0.00 0.00 0.00 69 1016.1
20260903134533 83 67 4.0 9.0 0.00 0.00 0.00 71 1016.1
20260903133015 84 68 3.0 6.0 0.00 0.00 0.00 71 1016.2
20260903131520 83 84 3.0 9.0 0.00 0.00 0.00 71 1016.2
20260903130028 83 103 2.0 8.0 0.00 0.00 0.00 71 1016.4
20260903124506 83 91 2.0 8.0 0.00 0.00 0.00 71 1016.5
20260903123003 84 78 3.0 8.0 0.00 0.00 0.00 71 1016.5
20260903121507 84 94 4.0 8.0 0.00 0.00 0.00 71 1016.4
20260903120007 84 71 5.0 9.0 0.00 0.00 0.00 70 1016.5
20260903114504 85 89 2.0 9.0 0.00 0.00 0.00 69 1016.6
20260903113018 85 97 1.0 5.0 0.00 0.00 0.00 69 1016.7
20260903111505 85 36 2.0 5.0 0.00 0.00 0.00 69 1016.7
20260903110004 86 144 1.0 8.0 0.00 0.00 0.00 69 1016.8
20260903104503 85 225 3.0 8.0 0.00 0.00 0.00 69 1016.8
20260903103003 84 316 2.0 6.0 0.00 0.00 0.00 71 1016.8
20260903101522 84 48 2.0 9.0 0.00 0.00 0.00 71 1016.9
20260903100005 84 107 1.0 7.0 0.00 0.00 0.00 71 1017.0
20260903094507 83 84 2.0 8.0 0.00 0.00 0.00 72 1017.1
20260903093006 83 352 3.0 8.0 0.00 0.00 0.00 72 1017.1